CW9809 Weather Reports


Display with metric or nautical units.
time (UTC)temp
F
wind
direction
speed
MPH
gust
MPH
rain 1hr
in
rain 24hr
in
rain mn
in
humidity
%
barometer
mb
20260506004509 65 172 0.0 0.0 0.00 0.00 0.00 63 1010.1
20260506003013 66 188 2.0 9.0 0.00 0.00 0.00 63 1009.8
20260506001518 66 196 0.0 7.0 0.00 0.00 0.00 62 1009.7
20260506000005 67 229 0.0 0.0 0.00 0.00 0.00 61 1009.4
20260505234504 67 205 0.0 12.0 0.00 0.00 0.00 61 1009.3
20260505233015 68 217 1.0 13.0 0.00 0.00 0.00 60 1009.4
20260505231514 68 196 0.0 1.0 0.00 0.00 0.00 60 1009.2
20260505230016 69 213 1.0 10.0 0.00 0.00 0.00 60 1009.0
20260505224504 69 196 0.0 9.0 0.00 0.00 0.00 59 1008.7
20260505223009 70 239 0.0 6.0 0.00 0.00 0.00 58 1008.6
20260505221508 71 171 0.0 9.0 0.00 0.00 0.00 57 1008.8
20260505220013 72 241 0.0 11.0 0.00 0.00 0.00 57 1008.8
20260505214522 72 220 0.0 10.0 0.00 0.00 0.00 54 1008.7
20260505213005 74 150 0.0 11.0 0.00 0.00 0.00 53 1008.5
20260505211506 75 254 0.0 8.0 0.00 0.00 0.00 52 1008.4
20260505210014 74 202 4.0 9.0 0.00 0.00 0.00 52 1008.3
20260505204524 75 126 0.0 14.0 0.00 0.00 0.00 52 1008.6
20260505203024 76 220 2.0 10.0 0.00 0.00 0.00 50 1008.5
20260505201504 75 209 4.0 14.0 0.00 0.00 0.00 49 1008.5
20260505200017 77 184 4.0 14.0 0.00 0.00 0.00 48 1008.7
20260505194514 77 187 3.0 12.0 0.00 0.00 0.00 49 1008.8
20260505193018 77 224 5.0 14.0 0.00 0.00 0.00 48 1008.7
20260505191524 78 196 1.0 10.0 0.00 0.00 0.00 47 1008.9
20260505190025 79 190 4.0 13.0 0.00 0.00 0.00 46 1008.9
20260505184517 79 14 2.0 12.0 0.00 0.00 0.00 47 1009.2
20260505183037 79 215 3.0 11.0 0.00 0.00 0.00 46 1009.2
20260505181520 79 206 4.0 10.0 0.00 0.00 0.00 46 1009.3
20260505180023 78 198 2.0 10.0 0.00 0.00 0.00 48 1009.3
20260505174529 80 193 0.0 10.0 0.00 0.00 0.00 48 1009.4
20260505173020 79 237 0.0 10.0 0.00 0.00 0.00 45 1009.5
20260505171518 78 215 1.0 11.0 0.00 0.00 0.00 48 1009.6
20260505170019 78 242 0.0 8.0 0.00 0.00 0.00 47 1009.8
20260505164526 77 207 0.0 8.0 0.00 0.00 0.00 48 1010.2
20260505163027 77 187 0.0 14.0 0.00 0.00 0.00 48 1010.4
20260505161512 78 236 0.0 12.0 0.00 0.00 0.00 48 1010.4
20260505153028 74 156 0.0 6.0 0.00 0.00 0.00 51 1011.0
20260505151529 74 225 0.0 6.0 0.00 0.00 0.00 54 1011.2
20260505124530 60 229 0.0 1.0 0.00 0.00 0.00 73 1011.3
20260505123016 59 226 0.0 4.0 0.00 0.00 0.00 74 1011.5
20260505121503 57 203 0.0 0.0 0.00 0.00 0.00 81 1011.6
20260505120007 56 202 0.0 0.0 0.00 0.00 0.00 81 1011.4
20260505114510 55 211 0.0 0.0 0.00 0.00 0.00 83 1011.5
20260505113014 53 211 0.0 0.0 0.00 0.00 0.00 85 1011.4
20260505111516 53 211 0.0 0.0 0.00 0.00 0.00 86 1011.3
20260505101525 51 215 0.0 0.0 0.00 0.00 0.00 87 1010.7
20260505100022 51 219 0.0 0.0 0.00 0.00 0.00 86 1010.6
20260505094528 51 219 0.0 0.0 0.00 0.00 0.00 86 1010.4
20260505093010 51 219 0.0 0.0 0.00 0.00 0.00 85 1010.4
20260505091512 51 219 0.0 0.0 0.00 0.00 0.00 85 1010.3
20260505090021 50 219 0.0 0.0 0.00 0.00 0.00 84 1010.3
20260505084534 50 219 0.0 0.0 0.00 0.00 0.00 83 1010.4
20260505083022 51 219 0.0 0.0 0.00 0.00 0.00 82 1010.4
20260505081512 51 219 0.0 0.0 0.00 0.00 0.00 82 1010.5
20260505080015 51 219 0.0 0.0 0.00 0.00 0.00 80 1010.5
20260505074520 52 219 0.0 0.0 0.00 0.00 0.00 79 1010.6
20260505073034 52 219 0.0 0.0 0.00 0.00 0.00 78 1010.4
20260505071524 53 219 0.0 0.0 0.00 0.00 0.00 77 1010.4
20260505070019 54 198 0.0 0.0 0.00 0.00 0.00 75 1010.5
20260505064516 55 198 0.0 0.0 0.00 0.00 0.00 72 1010.7
20260505063023 56 202 0.0 0.0 0.00 0.00 0.00 69 1010.6
20260505061535 57 226 0.0 0.0 0.00 0.00 0.00 67 1010.6
20260505060029 58 200 0.0 0.0 0.00 0.00 0.00 66 1010.8
20260505054534 58 222 0.0 3.0 0.00 0.00 0.00 65 1010.8
20260505053020 57 209 0.0 7.0 0.00 0.00 0.00 65 1011.0
20260505051525 57 222 0.0 4.0 0.00 0.00 0.00 67 1011.0
20260505041531 56 178 0.0 0.0 0.00 0.00 0.00 68 1011.4
20260505040036 56 167 0.0 0.0 0.00 0.00 0.00 67 1011.3
20260505034531 56 156 0.0 0.0 0.00 0.00 0.00 68 1011.4
20260505033010 56 199 0.0 0.0 0.00 0.00 0.00 68 1011.4
20260505031532 56 202 0.0 0.0 0.00 0.00 0.00 69 1011.4
20260505030022 56 193 0.0 0.0 0.00 0.00 0.00 68 1011.4
20260505024533 56 198 0.0 5.0 0.00 0.00 0.00 69 1011.3
20260505023028 56 202 0.0 0.0 0.00 0.00 0.00 69 1011.4
20260505021516 55 176 0.0 0.0 0.00 0.00 0.00 69 1011.5
20260505020020 55 211 0.0 0.0 0.00 0.00 0.00 69 1011.5
20260505014531 56 323 0.0 0.0 0.00 0.00 0.00 68 1011.5
20260505013026 56 228 0.0 0.0 0.00 0.00 0.00 66 1011.4
20260505011528 57 228 0.0 5.0 0.00 0.00 0.00 65 1011.2
20260505010023 57 223 0.0 1.0 0.00 0.00 0.00 63 1011.0